Regional Weather Roundup
Issued by NWS

Home | Current Version | Previous Version | Text Only | Print | Product List | Glossary Off
Versions: 1 2 3 4 5 6 7 8 9 10 11 12 13 14 15 16 17 18 19 20 21 22 23 24 25 26 27 28 29 30 31 32 33 34 35 36 37 38 39 40 41 42 43 44 45 46 47 48 49 50

000
ASUS43 KBIS 232102
RWRND

NORTH DAKOTA REGIONAL WEATHER ROUNDUP
NATIONAL WEATHER SERVICE BISMARCK ND
400 PM CDT THU MAR 23 2017

NOTE: "FAIR" INDICATES FEW OR NO CLOUDS BELOW 12,000 FEET WITH NO
SIGNIFICANT WEATHER AND/OR OBSTRUCTIONS TO VISIBILITY.


NDZ001>003-009>011-017-232200-
NORTHWEST NORTH DAKOTA

CITY           SKY/WX    TMP DP  RH WIND       PRES   REMARKS
WILLISTON      FAIR      56  38  50 NE7       29.75S
MINOT          FAIR      42  34  73 N10       29.75S
MINOT AFB      CLOUDY    40  34  79 N9        29.75R
$$

NDZ018>021-031>035-040>046-232200-
SOUTHWEST NORTH DAKOTA

CITY           SKY/WX    TMP DP  RH WIND       PRES   REMARKS
BISMARCK       CLOUDY    41  37  86 N7        29.73F
DICKINSON      CLOUDY    48  38  68 NE5       29.73F
GARRISON         N/A     42  33  70 W5        29.75R
HETTINGER ARPT CLOUDY    45  39  79 NE21G28   29.74F
$$

NDZ004>008-012>016-024-026-027-054-232200-
NORTHEAST NORTH DAKOTA

CITY           SKY/WX    TMP DP  RH WIND       PRES   REMARKS
GRAND FORKS    LGT RAIN  36  35  96 SE14      29.75F
GRND FRKS AFB  CLOUDY    35  35  99 E5        29.75F
DEVILS LAKE    PTSUNNY   36  33  89 NW6       29.77R
$$

NDZ022-023-025-028>030-036>039-047>053-232200-
SOUTHEAST NORTH DAKOTA

CITY           SKY/WX    TMP DP  RH WIND       PRES   REMARKS
FARGO          CLOUDY    38  33  82 SE13      29.79F
JAMESTOWN      LGT RAIN  43  38  82 NE8       29.70F
$$




USA.gov is the U.S. government's official web portal to all federal, state and local government web resources and services.